TimeAKST,TemperatureF,Dew PointF,Humidity,Sea Level PressureIn,VisibilityMPH,Wind Direction,Wind SpeedMPH,Gust SpeedMPH,PrecipitationIn,Events,Conditions,WindDirDegrees,DateUTC
12:53 AM,30.9,30.9,100,29.58,10.0,Calm,Calm,-,N/A,,Mostly Cloudy,0,2012-11-11 09:53:00
1:25 AM,30.9,30.9,100,29.58,6.0,Calm,Calm,-,N/A,,Overcast,0,2012-11-11 10:25:00
1:53 AM,30.9,30.9,100,29.58,10.0,Calm,Calm,-,N/A,,Mostly Cloudy,0,2012-11-11 10:53:00
2:03 AM,30.9,30.9,100,29.57,3.0,Calm,Calm,-,N/A,,Mostly Cloudy,0,2012-11-11 11:03:00
2:07 AM,30.9,30.9,100,29.57,2.5,West,3.5,-,N/A,,Mostly Cloudy,260,2012-11-11 11:07:00
2:14 AM,30.9,30.9,100,29.57,3.0,Calm,Calm,-,N/A,,Mostly Cloudy,0,2012-11-11 11:14:00
2:25 AM,30.9,30.9,100,29.57,3.0,West,5.8,-,N/A,,Overcast,270,2012-11-11 11:25:00
2:30 AM,30.9,30.9,100,29.57,1.8,West,3.5,-,N/A,,Overcast,280,2012-11-11 11:30:00
3:01 AM,30.9,30.9,100,29.58,0.8,Calm,Calm,-,N/A,,Overcast,0,2012-11-11 12:01:00
3:14 AM,30.9,30.9,100,29.58,1.0,East,3.5,-,N/A,,Mist,100,2012-11-11 12:14:00
3:34 AM,30.9,30.9,100,29.58,3.0,Calm,Calm,-,N/A,,Scattered Clouds,0,2012-11-11 12:34:00
3:53 AM,32.0,32.0,100,29.58,2.0,Calm,Calm,-,N/A,,Scattered Clouds,0,2012-11-11 12:53:00
3:57 AM,32.0,32.0,100,29.58,1.5,Calm,Calm,-,N/A,,Mostly Cloudy,0,2012-11-11 12:57:00
4:11 AM,32.0,32.0,100,29.58,2.5,ESE,3.5,-,N/A,,Mostly Cloudy,110,2012-11-11 13:11:00
4:13 AM,32.0,32.0,100,29.58,3.0,Calm,Calm,-,N/A,,Mostly Cloudy,0,2012-11-11 13:13:00
4:36 AM,30.9,30.9,100,29.57,1.8,Calm,Calm,-,N/A,,Overcast,0,2012-11-11 13:36:00
4:46 AM,30.9,30.9,100,29.58,1.0,Calm,Calm,-,N/A,,Overcast,0,2012-11-11 13:46:00
4:53 AM,30.9,30.9,100,29.58,1.0,West,3.5,-,N/A,,Overcast,270,2012-11-11 13:53:00
5:05 AM,30.9,30.9,100,29.57,1.0,West,3.5,-,N/A,,Overcast,260,2012-11-11 14:05:00
5:15 AM,30.9,30.9,100,29.58,0.8,Calm,Calm,-,N/A,,Overcast,0,2012-11-11 14:15:00
5:24 AM,30.9,30.9,100,29.58,0.5,Calm,Calm,-,N/A,Fog,Light Freezing Fog,0,2012-11-11 14:24:00
5:53 AM,30.9,30.9,100,29.58,0.5,Calm,Calm,-,N/A,Fog,Light Freezing Fog,0,2012-11-11 14:53:00
6:53 AM,30.9,30.9,100,29.59,0.5,Calm,Calm,-,N/A,Fog,Light Freezing Fog,0,2012-11-11 15:53:00
7:07 AM,30.9,30.9,100,29.58,0.2,Calm,Calm,-,N/A,Fog,Light Freezing Fog,0,2012-11-11 16:07:00
7:14 AM,30.9,30.9,100,29.58,0.5,Calm,Calm,-,N/A,Fog,Light Freezing Fog,0,2012-11-11 16:14:00
7:42 AM,30.0,30.0,100,29.58,1.5,Calm,Calm,-,N/A,,Mostly Cloudy,0,2012-11-11 16:42:00
7:46 AM,30.0,30.0,100,29.58,3.0,Calm,Calm,-,N/A,,Mostly Cloudy,0,2012-11-11 16:46:00
7:53 AM,30.0,30.0,100,29.59,10.0,Calm,Calm,-,N/A,,Mostly Cloudy,0,2012-11-11 16:53:00
8:00 AM,30.0,30.0,100,29.59,1.5,Calm,Calm,-,N/A,,Mostly Cloudy,0,2012-11-11 17:00:00
8:10 AM,30.0,30.0,100,29.59,0.5,Calm,Calm,-,N/A,Fog,Light Freezing Fog,0,2012-11-11 17:10:00
8:32 AM,30.0,30.0,100,29.59,2.5,Calm,Calm,-,N/A,,Overcast,0,2012-11-11 17:32:00
8:44 AM,30.0,30.0,100,29.59,0.8,Calm,Calm,-,N/A,,Overcast,0,2012-11-11 17:44:00
9:53 AM,30.9,30.9,100,29.61,0.5,Calm,Calm,-,N/A,Fog,Light Freezing Fog,0,2012-11-11 18:53:00
10:26 AM,30.9,30.9,100,29.61,2.0,Calm,Calm,-,N/A,,Mostly Cloudy,0,2012-11-11 19:26:00
10:30 AM,30.9,30.9,100,29.61,6.0,Calm,Calm,-,N/A,,Scattered Clouds,0,2012-11-11 19:30:00
10:53 AM,30.9,30.9,100,29.62,6.0,Calm,Calm,-,N/A,,Partly Cloudy,0,2012-11-11 19:53:00
11:53 AM,32.0,32.0,100,29.64,2.5,Calm,Calm,-,N/A,,Mostly Cloudy,0,2012-11-11 20:53:00
12:00 PM,32.0,32.0,100,29.63,0.8,Calm,Calm,-,N/A,,Mostly Cloudy,0,2012-11-11 21:00:00
12:26 PM,30.9,30.9,100,29.64,0.2,WSW,3.5,-,N/A,Fog,Light Freezing Fog,250,2012-11-11 21:26:00
12:50 PM,32.0,32.0,100,29.64,0.8,Calm,Calm,-,N/A,,Mist,0,2012-11-11 21:50:00
12:53 PM,32.0,32.0,100,29.65,1.5,Calm,Calm,-,N/A,,Overcast,0,2012-11-11 21:53:00
12:56 PM,32.0,32.0,100,29.64,4.0,Calm,Calm,-,N/A,,Overcast,0,2012-11-11 21:56:00
1:05 PM,32.0,32.0,100,29.65,1.8,Calm,Calm,-,N/A,,Overcast,0,2012-11-11 22:05:00
1:24 PM,33.1,33.1,100,29.65,0.5,Calm,Calm,-,N/A,Fog,Fog,0,2012-11-11 22:24:00
1:38 PM,32.0,32.0,100,29.65,0.2,Calm,Calm,-,N/A,Fog,Fog,0,2012-11-11 22:38:00
1:49 PM,32.0,32.0,100,29.65,0.8,Calm,Calm,-,N/A,,Overcast,0,2012-11-11 22:49:00
1:53 PM,32.0,32.0,100,29.66,0.5,Calm,Calm,-,N/A,Fog,Fog,0,2012-11-11 22:53:00
2:06 PM,32.0,32.0,100,29.65,2.0,West,3.5,-,N/A,,Mostly Cloudy,260,2012-11-11 23:06:00
2:15 PM,32.0,32.0,100,29.66,3.0,WSW,3.5,-,N/A,,Mostly Cloudy,250,2012-11-11 23:15:00
2:18 PM,32.0,32.0,100,29.66,1.8,West,3.5,-,N/A,,Mostly Cloudy,260,2012-11-11 23:18:00
2:41 PM,32.0,32.0,100,29.66,0.8,West,4.6,-,N/A,,Overcast,280,2012-11-11 23:41:00
2:53 PM,30.9,30.9,100,29.67,0.5,Calm,Calm,-,N/A,Fog,Light Freezing Fog,0,2012-11-11 23:53:00
3:01 PM,30.9,30.9,100,29.67,0.2,West,4.6,-,N/A,Fog,Light Freezing Fog,270,2012-11-12 00:01:00
3:53 PM,30.9,30.9,100,29.68,0.2,West,4.6,-,N/A,Fog,Light Freezing Fog,280,2012-11-12 00:53:00
4:48 PM,30.2,30.2,100,29.69,0.5,West,3.5,-,N/A,Fog,Light Freezing Fog,270,2012-11-12 01:48:00
4:53 PM,30.9,30.9,100,29.70,0.8,West,4.6,-,N/A,,Mist,270,2012-11-12 01:53:00
5:13 PM,30.9,30.9,100,29.70,1.2,West,4.6,-,N/A,,Overcast,270,2012-11-12 02:13:00
5:28 PM,30.0,30.0,100,29.70,2.5,West,3.5,-,N/A,,Overcast,260,2012-11-12 02:28:00
5:42 PM,30.0,30.0,100,29.71,1.5,Calm,Calm,-,N/A,,Overcast,0,2012-11-12 02:42:00
5:59 PM,30.0,30.0,100,29.71,3.0,Calm,Calm,-,N/A,,Overcast,0,2012-11-12 02:59:00
6:35 PM,30.0,30.0,100,29.71,2.0,WNW,5.8,-,N/A,,Overcast,290,2012-11-12 03:35:00
6:42 PM,30.0,30.0,100,29.72,1.5,West,4.6,-,N/A,,Overcast,280,2012-11-12 03:42:00
6:53 PM,30.0,30.0,100,29.73,1.2,WNW,3.5,-,N/A,,Overcast,290,2012-11-12 03:53:00
7:46 PM,30.0,30.0,100,29.74,0.8,WNW,3.5,-,N/A,,Mist,290,2012-11-12 04:46:00
7:53 PM,30.0,30.0,100,29.74,0.5,Calm,Calm,-,N/A,Fog,Light Freezing Fog,0,2012-11-12 04:53:00
8:11 PM,30.0,30.0,100,29.74,1.8,West,3.5,-,N/A,,Overcast,280,2012-11-12 05:11:00
8:32 PM,30.0,30.0,100,29.74,0.8,Calm,Calm,-,N/A,,Mist,0,2012-11-12 05:32:00
8:42 PM,30.0,30.0,100,29.75,2.0,WNW,3.5,-,N/A,,Overcast,290,2012-11-12 05:42:00
8:51 PM,30.2,30.2,100,29.75,3.0,Variable,4.6,-,N/A,,Overcast,0,2012-11-12 05:51:00
8:53 PM,30.0,30.0,100,29.75,3.0,Variable,4.6,-,N/A,,Overcast,0,2012-11-12 05:53:00
9:07 PM,30.0,30.0,100,29.75,2.5,Variable,3.5,-,N/A,,Overcast,0,2012-11-12 06:07:00
9:17 PM,30.0,30.0,100,29.76,1.2,Variable,4.6,-,N/A,,Overcast,0,2012-11-12 06:17:00
9:34 PM,30.0,30.0,100,29.76,0.8,Variable,3.5,-,N/A,,Mist,0,2012-11-12 06:34:00
9:45 PM,30.0,30.0,100,29.77,1.0,West,3.5,-,N/A,,Mist,280,2012-11-12 06:45:00
9:53 PM,30.0,30.0,100,29.77,1.0,Variable,3.5,-,N/A,,Mist,0,2012-11-12 06:53:00
10:35 PM,30.0,30.0,100,29.77,2.5,West,3.5,-,N/A,,Overcast,280,2012-11-12 07:35:00
10:43 PM,28.9,28.9,100,29.78,3.0,Variable,3.5,-,N/A,,Overcast,0,2012-11-12 07:43:00
10:53 PM,30.0,30.0,100,29.78,2.5,WNW,3.5,-,N/A,,Overcast,300,2012-11-12 07:53:00
11:10 PM,30.0,30.0,100,29.78,1.5,Calm,Calm,-,N/A,,Overcast,0,2012-11-12 08:10:00
11:30 PM,28.9,28.9,100,29.78,3.0,WNW,3.5,-,N/A,,Overcast,300,2012-11-12 08:30:00
11:43 PM,28.9,28.9,100,29.79,2.5,Calm,Calm,-,N/A,,Overcast,0,2012-11-12 08:43:00
11:51 PM,28.4,28.4,100,29.79,3.0,NW,3.5,-,N/A,,Overcast,310,2012-11-12 08:51:00
11:53 PM,28.9,28.9,100,29.80,4.0,Variable,3.5,-,N/A,,Overcast,0,2012-11-12 08:53:00